| time (UTC) | temp F | wind direction | speed MPH | gust MPH | rain 1hr in | rain 24hr in | rain mn in | humidity % | barometer mb |
| 20260505123325 | 61 | 281 | 0.0 | 1.0 | 0.00 | 0.34 | 0.34 | 18 | 1004.9 |
| 20260505020324 | 70 | 141 | 0.0 | 3.0 | 0.00 | 0.00 | 0.00 | 62 | 1005.3 |
| 20260505013318 | 71 | 210 | 0.0 | 3.0 | 0.00 | 0.00 | 0.00 | 61 | 1004.7 |
| 20260505010314 | 73 | 177 | 2.0 | 5.0 | 0.00 | 0.00 | 0.00 | 58 | 1004.4 |
| 20260505003328 | 75 | 76 | 3.0 | 8.0 | 0.00 | 0.00 | 0.00 | 55 | 1004.1 |
| 20260505000323 | 77 | 153 | 6.0 | 11.0 | 0.00 | 0.00 | 0.00 | 52 | 1004.0 |
| 20260504233318 | 79 | 136 | 4.0 | 11.0 | 0.00 | 0.00 | 0.00 | 49 | 1003.9 |
| 20260504230333 | 80 | 155 | 4.0 | 9.0 | 0.00 | 0.00 | 0.00 | 47 | 1004.1 |
| 20260504223326 | 80 | 260 | 4.0 | 12.0 | 0.00 | 0.00 | 0.00 | 49 | 1004.3 |
| 20260504220321 | 80 | 263 | 8.0 | 12.0 | 0.00 | 0.00 | 0.00 | 48 | 1004.5 |
| 20260504213316 | 79 | 156 | 9.0 | 16.0 | 0.00 | 0.00 | 0.00 | 45 | 1004.7 |
| 20260504210331 | 79 | 228 | 9.0 | 15.0 | 0.00 | 0.00 | 0.00 | 47 | 1004.8 |
| 20260504203346 | 79 | 183 | 9.0 | 18.0 | 0.00 | 0.00 | 0.00 | 48 | 1005.3 |
| 20260504200319 | 79 | 235 | 9.0 | 17.0 | 0.00 | 0.00 | 0.00 | 47 | 1005.4 |
| 20260504193348 | 79 | 242 | 10.0 | 18.0 | 0.00 | 0.00 | 0.00 | 50 | 1005.9 |
| 20260504190321 | 78 | 181 | 10.0 | 17.0 | 0.00 | 0.00 | 0.00 | 50 | 1006.1 |
| 20260504183316 | 77 | 203 | 11.0 | 17.0 | 0.00 | 0.00 | 0.00 | 52 | 1006.6 |
| 20260504180331 | 76 | 230 | 8.0 | 18.0 | 0.00 | 0.00 | 0.00 | 53 | 1006.8 |
| 20260504173325 | 77 | 236 | 8.0 | 15.0 | 0.00 | 0.00 | 0.00 | 52 | 1006.8 |
| 20260504170320 | 76 | 205 | 11.0 | 17.0 | 0.00 | 0.00 | 0.00 | 49 | 1007.2 |
| 20260504160329 | 73 | 255 | 11.0 | 19.0 | 0.00 | 0.00 | 0.00 | 52 | 1007.8 |
| 20260504150320 | 71 | 236 | 7.0 | 17.0 | 0.00 | 0.00 | 0.00 | 55 | 1008.2 |
| 20260504140312 | 68 | 256 | 8.0 | 11.0 | 0.00 | 0.00 | 0.00 | 61 | 1008.9 |
| 20260504130320 | 62 | 203 | 3.0 | 7.0 | 0.00 | 0.00 | 0.00 | 68 | 1009.4 |